Weather History for Monticello, KY

Change the Weather History Date:

Monday, February 18, 2013

  Actual Average Record
Temperature  
Mean Temperature 40 °F -  
Max Temperature 59 °F 50 °F 73 °F (1971)
Min Temperature 21 °F 28 °F 2 °F (1958)
Degree Days  
Heating Degree Days 25    
Moisture  
Dew Point 27 °F    
Average Humidity 50    
Maximum Humidity 81    
Minimum Humidity 31    
Precipitation  
Precipitation 0.08 in - - ()
Sea Level Pressure  
Sea Level Pressure 30.10 in    
Wind  
Wind Speed 10 mph (North)    
Max Wind Speed 26 mph    
Max Gust Speed 37 mph    
Visibility 9 miles    
Events Rain    
Averages and records for this station are not official NWS values.
T = Trace of Precipitation, MM = Missing Value Source: NWS Daily Summary

Daily Weather History Graph

Daily Weather History Graph

Search for Another Location

Airport:

Trip Planner

Search our weather history database for the weather conditions in past years. The results will help you decide how hot, cold, wet, or windy it might be!

Date:

Astronomy

Feb. 18, 2013 Rise Set
Actual Time 6:24 AM CST 5:23 PM CST
Civil Twilight 5:57 AM CST 5:49 PM CST
Nautical Twilight 5:27 AM CST 6:19 PM CST
Astronomical Twilight 4:57 AM CST 6:49 PM CST
Moon 11:12 AM CST (2/18) 12:58 AM CST (2/18)
Length of Visible Light 11h 51m
Length of Day
10h 59m
First Quarter, 58% of the Moon is Illuminated
Feb 18
First Quarter
Feb 25
Full
Mar 4
Last Quarter
Mar 11
New
Mar 19
First Quarter

Hourly Weather History & Observations

Time (CST) Temp. Windchill Dew Point Humidity Pressure Visibility Wind Dir Wind Speed Gust Speed Precip Events Conditions
12:56 AM 21.0 °F - 15.1 °F 78% 30.27 in 10.0 mi Calm Calm - N/A   Clear
1:56 AM 21.0 °F - 16.2 °F 81% 30.26 in 10.0 mi Calm Calm - N/A   Clear
2:56 AM 31.1 °F 24.5 °F 16.2 °F 54% 30.25 in 10.0 mi North 6.9 mph - N/A   Clear
3:56 AM 32.0 °F 26.4 °F 17.1 °F 54% 30.24 in 10.0 mi North 5.8 mph - N/A   Clear
5:56 AM 34.9 °F 27.1 °F 18.1 °F 51% 30.24 in 10.0 mi North 10.4 mph - N/A   Clear
6:56 AM 36.9 °F 30.1 °F 19.0 °F 49% 30.25 in 10.0 mi North 9.2 mph - N/A   Clear
7:56 AM 41.9 °F 35.0 °F 21.0 °F 43% 30.26 in 10.0 mi North 12.7 mph - N/A   Clear
8:56 AM 46.9 °F - 24.1 °F 41% 30.25 in 10.0 mi NNE 11.5 mph - N/A   Clear
9:56 AM 50.9 °F - 30.0 °F 45% 30.23 in 10.0 mi NNE 17.3 mph - N/A   Partly Cloudy
10:56 AM 54.0 °F - 34.0 °F 47% 30.21 in 10.0 mi NE 16.1 mph 24.2 mph N/A   Clear
11:56 AM 56.8 °F - 36.0 °F 46% 30.17 in 10.0 mi NE 17.3 mph 28.8 mph N/A   Clear
12:56 PM 59.0 °F - 32.9 °F 37% 30.12 in 10.0 mi North 13.8 mph 23.0 mph N/A   Clear
1:56 PM 59.9 °F - 31.1 °F 34% 30.10 in 10.0 mi NNE 13.8 mph - N/A   Clear
2:56 PM 59.9 °F - 29.1 °F 31% 30.06 in 10.0 mi NNW 20.7 mph - N/A   Clear
3:56 PM 57.9 °F - 27.1 °F 31% 30.04 in 10.0 mi North 18.4 mph 24.2 mph N/A   Clear
5:56 PM 52.9 °F - 28.0 °F 38% 30.01 in 10.0 mi North 18.4 mph - N/A   Clear
6:56 PM 54.0 °F - 28.0 °F 37% 29.98 in 10.0 mi North 26.5 mph 34.5 mph N/A   Scattered Clouds
8:56 PM 54.0 °F - 26.1 °F 34% 29.91 in 10.0 mi North 20.7 mph 36.8 mph N/A   Scattered Clouds
9:56 PM 52.9 °F - 26.1 °F 35% 29.90 in 10.0 mi North 26.5 mph 36.8 mph N/A   Mostly Cloudy
10:56 PM 46.9 °F - 34.9 °F 63% 29.94 in 4.0 mi NNE 19.6 mph 25.3 mph 0.00 in Rain Light Rain
11:23 PM 46.4 °F 40.1 °F 37.4 °F 71% 29.91 in 3.0 mi NNE 15.0 mph - 0.03 in Rain Rain
11:43 PM 44.6 °F 37.4 °F 37.4 °F 76% 29.89 in 3.0 mi North 16.1 mph 26.5 mph 0.05 in Rain Light Rain
11:56 PM 43.9 °F 37.5 °F 37.9 °F 80% 29.92 in 2.5 mi North 12.7 mph - 0.08 in Rain Rain